• In Uzbekistan
  • List of Countries
  • For 7 days
  • Water Temperature
  • Satellite Maps
  • Weather Map
  • Weather Widgets
  • user-avatar
    Login

    Hourly Weather Zalaegerszeg

    Today, 14 December, Thursday

    Time Temperature Precipitation Wind Pressure Humidity
    00:00 -1°C° 0 mm 4 mps 743 mmHg 88%
    01:00 0°C° 0 mm 3 mps 742 mmHg 90%
    02:00 -1°C° 0 mm 4 mps 741 mmHg 88%
    03:00 0°C° 0 mm 5 mps 741 mmHg 86%
    04:00 +1°C° 0 mm 6 mps 740 mmHg 85%
    05:00 +1°C° 0 mm 6 mps 739 mmHg 82%
    06:00 +2°C° 0 mm 6 mps 739 mmHg 80%
    07:00 +3°C° 0 mm 6 mps 739 mmHg 77%
    08:00 +4°C° 0 mm 6 mps 739 mmHg 77%
    09:00 +5°C° 0 mm 5 mps 739 mmHg 76%
    10:00 +6°C° 0 mm 5 mps 739 mmHg 75%
    11:00 +6°C° 0.1 mm 4 mps 739 mmHg 75%
    12:00 +8°C° 0.1 mm 3 mps 739 mmHg 76%
    13:00 +8°C° 0.1 mm 2 mps 739 mmHg 76%
    14:00 +8°C° 0 mm 2 mps 739 mmHg 78%
    15:00 +7°C° 0 mm 2 mps 739 mmHg 81%
    16:00 +7°C° 0 mm 2 mps 739 mmHg 83%
    17:00 +7°C° 0.4 mm 2 mps 739 mmHg 85%
    18:00 +7°C° 0.4 mm 2 mps 739 mmHg 87%
    19:00 +5°C° 0.4 mm 3 mps 739 mmHg 89%
    20:00 +5°C° 0.4 mm 3 mps 739 mmHg 89%
    21:00 +5°C° 0.4 mm 3 mps 739 mmHg 88%
    22:00 +5°C° 0.4 mm 4 mps 739 mmHg 87%
    23:00 +5°C° 0.5 mm 4 mps 738 mmHg 87%

    Tomorrow, 15 December, Friday

    Time Temperature Precipitation Wind Pressure Humidity
    00:00 +3°C° 0.5 mm 5 mps 738 mmHg 86%
    01:00 +3°C° 0.5 mm 5 mps 737 mmHg 86%
    02:00 +3°C° 0.1 mm 5 mps 737 mmHg 87%
    03:00 +3°C° 0.1 mm 5 mps 736 mmHg 88%
    04:00 +4°C° 0.1 mm 4 mps 735 mmHg 89%
    05:00 +5°C° 0 mm 5 mps 735 mmHg 87%
    06:00 +6°C° 0 mm 5 mps 735 mmHg 84%
    07:00 +7°C° 0 mm 6 mps 734 mmHg 81%
    08:00 +7°C° 0 mm 5 mps 735 mmHg 79%
    09:00 +8°C° 0 mm 4 mps 735 mmHg 78%
    10:00 +9°C° 0 mm 3 mps 736 mmHg 76%
    11:00 +9°C° 0.2 mm 3 mps 736 mmHg 74%
    12:00 +8°C° 0.2 mm 3 mps 737 mmHg 71%
    13:00 +8°C° 0.2 mm 2 mps 737 mmHg 69%
    14:00 +7°C° 0 mm 2 mps 737 mmHg 68%
    15:00 +7°C° 0 mm 3 mps 737 mmHg 67%
    16:00 +5°C° 0 mm 3 mps 738 mmHg 66%
    17:00 +5°C° 0.3 mm 3 mps 738 mmHg 66%
    18:00 +4°C° 0.3 mm 3 mps 738 mmHg 66%
    19:00 +4°C° 0.3 mm 3 mps 738 mmHg 66%
    20:00 +4°C° 0.2 mm 3 mps 738 mmHg 68%
    21:00 +3°C° 0.2 mm 3 mps 738 mmHg 70%
    22:00 +3°C° 0.2 mm 3 mps 738 mmHg 71%
    23:00 +3°C° 0.3 mm 3 mps 738 mmHg 74%

    Day after tomorrow, 16 December, Saturday

    Time Temperature Precipitation Wind Pressure Humidity
    00:00 +4°C° 0.3 mm 2 mps 738 mmHg 76%
    01:00 +3°C° 0.3 mm 2 mps 738 mmHg 79%
    02:00 +3°C° 0.2 mm 2 mps 738 mmHg 80%
    03:00 +3°C° 0.2 mm 2 mps 738 mmHg 80%
    04:00 +3°C° 0.2 mm 2 mps 738 mmHg 81%
    05:00 +3°C° 0.1 mm 2 mps 739 mmHg 82%
    06:00 +4°C° 0.1 mm 1 mps 739 mmHg 83%
    07:00 +4°C° 0.1 mm 1 mps 739 mmHg 83%
    08:00 +4°C° 0.1 mm 1 mps 740 mmHg 82%
    09:00 +4°C° 0.1 mm 1 mps 741 mmHg 80%
    10:00 +5°C° 0.1 mm 1 mps 741 mmHg 78%
    11:00 +4°C° 0 mm 2 mps 741 mmHg 75%
    12:00 +5°C° 0 mm 2 mps 742 mmHg 72%
    13:00 +5°C° 0 mm 2 mps 742 mmHg 69%
    14:00 +5°C° 0 mm 2 mps 742 mmHg 72%
    15:00 +4°C° 0 mm 2 mps 743 mmHg 75%
    16:00 +5°C° 0 mm 1 mps 743 mmHg 78%
    17:00 +3°C° 0 mm 2 mps 743 mmHg 78%
    18:00 +3°C° 0 mm 2 mps 744 mmHg 79%
    19:00 +2°C° 0 mm 2 mps 744 mmHg 80%
    20:00 +2°C° 0 mm 2 mps 745 mmHg 80%
    21:00 +2°C° 0 mm 2 mps 745 mmHg 81%
    22:00 0°C° 0 mm 3 mps 746 mmHg 82%
    23:00 0°C° 0 mm 3 mps 746 mmHg 82%

    17 December, Sunday

    Time Temperature Precipitation Wind Pressure Humidity
    00:00 0°C° 0 mm 3 mps 746 mmHg 83%
    01:00 0°C° 0 mm 3 mps 747 mmHg 83%
    02:00 0°C° 0 mm 3 mps 747 mmHg 82%
    03:00 -1°C° 0 mm 3 mps 747 mmHg 81%
    04:00 -1°C° 0 mm 3 mps 747 mmHg 80%
    05:00 -1°C° 0 mm 3 mps 748 mmHg 80%
    06:00 -1°C° 0 mm 3 mps 748 mmHg 79%
    07:00 -1°C° 0 mm 2 mps 749 mmHg 79%
    08:00 0°C° 0 mm 3 mps 749 mmHg 75%
    09:00 +1°C° 0 mm 3 mps 750 mmHg 71%
    10:00 +1°C° 0 mm 4 mps 750 mmHg 67%
    11:00 +1°C° 0 mm 4 mps 750 mmHg 64%
    12:00 +3°C° 0 mm 4 mps 751 mmHg 60%
    13:00 +4°C° 0 mm 4 mps 751 mmHg 57%
    14:00 +3°C° 0 mm 4 mps 751 mmHg 61%
    15:00 +2°C° 0 mm 3 mps 751 mmHg 65%
    16:00 +2°C° 0 mm 2 mps 752 mmHg 69%
    17:00 +2°C° 0 mm 2 mps 752 mmHg 71%
    18:00 +1°C° 0 mm 2 mps 753 mmHg 73%
    19:00 +1°C° 0 mm 2 mps 753 mmHg 74%
    20:00 +1°C° 0 mm 2 mps 754 mmHg 75%
    21:00 +1°C° 0 mm 2 mps 754 mmHg 75%
    22:00 +1°C° 0 mm 2 mps 755 mmHg 75%
    23:00 +1°C° 0 mm 2 mps 755 mmHg 75%

    18 December, Monday

    Time Temperature Precipitation Wind Pressure Humidity
    00:00 +1°C° 0 mm 2 mps 755 mmHg 75%
    01:00 -1°C° 0 mm 2 mps 755 mmHg 75%
    02:00 -1°C° 0 mm 2 mps 755 mmHg 75%
    03:00 -1°C° 0 mm 2 mps 755 mmHg 75%
    04:00 -1°C° 0 mm 2 mps 755 mmHg 75%
    05:00 -1°C° 0 mm 2 mps 754 mmHg 74%
    06:00 -1°C° 0 mm 2 mps 754 mmHg 73%
    07:00 -1°C° 0 mm 2 mps 754 mmHg 72%
    08:00 +1°C° 0 mm 2 mps 754 mmHg 69%
    09:00 0°C° 0 mm 3 mps 753 mmHg 67%
    10:00 -1°C° 0 mm 4 mps 753 mmHg 64%
    11:00 0°C° 0.1 mm 4 mps 752 mmHg 63%
    12:00 0°C° 0.1 mm 4 mps 751 mmHg 62%
    13:00 +1°C° 0.1 mm 5 mps 750 mmHg 61%
    14:00 0°C° 0.2 mm 4 mps 749 mmHg 65%
    15:00 0°C° 0.2 mm 4 mps 749 mmHg 69%
    16:00 +1°C° 0.2 mm 3 mps 748 mmHg 73%
    17:00 +1°C° 0.2 mm 3 mps 748 mmHg 74%
    18:00 +1°C° 0.2 mm 3 mps 748 mmHg 75%
    19:00 0°C° 0.2 mm 4 mps 748 mmHg 76%
    20:00 +1°C° 0 mm 3 mps 749 mmHg 77%
    21:00 0°C° 0 mm 3 mps 749 mmHg 78%
    22:00 0°C° 0 mm 3 mps 749 mmHg 78%
    23:00 0°C° 0 mm 3 mps 750 mmHg 79%

    19 December, Tuesday

    Time Temperature Precipitation Wind Pressure Humidity
    00:00 +1°C° 0 mm 2 mps 750 mmHg 80%
    01:00 +1°C° 0 mm 2 mps 750 mmHg 81%
    02:00 +1°C° 0.1 mm 2 mps 751 mmHg 81%
    03:00 +1°C° 0.1 mm 2 mps 751 mmHg 82%
    04:00 +2°C° 0.1 mm 2 mps 751 mmHg 82%
    05:00 +2°C° 0.3 mm 2 mps 752 mmHg 83%
    06:00 +2°C° 0.3 mm 2 mps 752 mmHg 84%
    07:00 +2°C° 0.3 mm 2 mps 753 mmHg 85%
    08:00 +1°C° 0.2 mm 3 mps 753 mmHg 84%
    09:00 0°C° 0.2 mm 4 mps 754 mmHg 83%
    10:00 0°C° 0.2 mm 5 mps 754 mmHg 82%
    11:00 0°C° 0.1 mm 5 mps 755 mmHg 79%
    12:00 -1°C° 0.1 mm 6 mps 755 mmHg 77%
    13:00 -1°C° 0.1 mm 6 mps 756 mmHg 74%
    14:00 -1°C° 0 mm 6 mps 756 mmHg 75%
    15:00 -2°C° 0 mm 6 mps 757 mmHg 76%
    16:00 -2°C° 0 mm 5 mps 757 mmHg 77%
    17:00 -2°C° 0 mm 5 mps 758 mmHg 78%
    18:00 -2°C° 0 mm 5 mps 759 mmHg 79%
    19:00 -4°C° 0 mm 5 mps 759 mmHg 80%
    20:00 -4°C° 0 mm 5 mps 760 mmHg 80%
    21:00 -4°C° 0 mm 5 mps 760 mmHg 81%
    22:00 -4°C° 0 mm 4 mps 760 mmHg 82%
    23:00 -4°C° 0 mm 4 mps 760 mmHg 82%
    Show more